RH
14 15 16 15 15 16 15 17 18 19 18 17 14 13 16 18 18 18 18 18 16 15 15 15 14 13 11 10 9 8 8 8 7 6 6 9 11 10 10 11 12 13 15 15 12 11 11 12 13 11 11 14 13 12 12 14 10 19 46 45 31 32 29 24 25 23 18 20 20 17 18 20 29 31 29 31 30 36 37 35 38 37 38 38 39 42 42 44
15 16 16 15 16 16 16 17 18 19 17 16 15 13 15 17 18 18 18 16 16 14 13 12 12 12 12 13 12 9 7 7 7 6 7 10 10 9 10 8 9 11 12 14 12 10 10 11 13 13 11 12 13 12 11 14 11 26 55 45 28 34 27 19 20 18 19 20 18 19 23 22 26 29 29 38 44 43 44 45 41 41 42 40 40 41 42 43
16 17 16 15 16 17 17 17 17 18 18 17 15 15 16 16 17 19 19 16 14 13 12 10 11 12 13 14 14 12 9 7 6 7 9 11 11 11 9 7 9 11 12 12 12 12 13 13 14 14 12 13 13 11 12 15 15 19 36 38 27 27 23 17 18 17 17 16 16 21 24 26 29 29 29 39 49 48 50 47 40 41 41 39 41 40 41 41
17 17 16 15 17 17 17 17 17 17 18 18 17 18 18 18 19 18 19 18 14 11 10 9 10 11 13 16 16 14 14 11 6 7 9 10 11 10 9 9 9 11 13 12 13 13 12 13 14 15 14 15 12 11 15 16 16 15 26 35 25 21 20 16 18 15 15 14 15 22 26 29 28 27 29 34 47 51 49 41 34 37 38 39 40 39 41 40
16 16 16 16 18 16 17 17 17 17 19 19 17 18 17 17 18 17 18 17 13 10 10 10 9 11 13 14 12 13 19 15 7 7 8 8 9 8 9 10 9 10 11 11 11 10 10 11 12 15 14 15 15 13 16 17 16 16 19 22 19 19 17 15 18 17 16 15 14 19 26 29 26 29 31 32 47 50 41 38 34 34 37 39 39 40 40 38
15 16 16 17 17 15 16 17 17 17 18 18 16 15 13 12 13 14 16 15 13 11 11 10 10 11 10 8 6 11 18 13 7 7 6 7 8 7 10 11 10 9 9 11 10 9 10 9 11 13 13 17 21 19 18 18 17 21 20 16 16 14 14 15 17 18 16 16 17 19 25 30 30 38 38 35 46 45 35 37 36 36 38 37 38 38 37 36
14 15 17 17 16 15 15 15 16 16 17 17 15 12 8 8 9 11 13 13 11 13 13 11 10 9 8 6 5 7 11 9 6 6 5 6 7 7 10 12 11 8 8 11 10 11 10 9 12 12 17 22 20 21 21 15 14 24 25 18 17 12 12 16 15 18 19 19 21 22 25 30 34 41 44 45 45 40 36 37 35 37 38 36 37 36 35 35
14 15 16 16 14 15 14 15 15 14 15 15 14 11 7 7 7 10 12 10 9 12 13 11 9 8 8 10 10 7 6 9 7 6 6 7 7 7 10 12 10 7 6 9 9 11 10 12 14 12 20 22 17 21 22 20 21 25 26 21 18 14 13 16 16 18 22 23 22 23 26 29 35 39 44 50 44 38 38 37 36 37 36 36 35 35 34 33
14 15 16 15 13 14 14 16 15 15 15 14 14 11 8 6 6 11 11 9 8 9 10 9 9 10 11 12 13 11 9 11 8 6 7 7 7 6 9 11 8 7 6 9 8 9 11 14 15 12 16 18 17 21 22 28 31 23 23 20 16 16 16 16 16 17 21 24 22 24 31 32 34 38 45 47 40 38 38 36 37 36 35 35 33 34 33 32
15 15 16 16 14 15 15 15 15 14 14 14 13 11 10 7 6 10 10 9 7 7 8 7 8 9 12 11 11 13 11 11 9 8 8 6 7 6 9 9 6 7 9 10 9 10 13 13 15 14 13 16 18 22 20 21 27 24 22 18 14 16 17 16 15 16 20 21 21 25 32 32 29 36 46 44 38 38 37 36 35 35 35 33 33 33 32 33
17 17 18 17 16 16 14 13 12 12 12 13 12 10 10 9 7 9 10 9 8 8 7 7 7 7 9 9 9 13 12 10 9 8 7 6 7 7 7 8 7 9 11 13 13 15 15 14 16 14 15 19 21 25 19 14 21 23 21 19 18 17 13 16 16 14 20 22 21 25 29 31 29 37 46 42 39 38 36 36 35 34 34 33 33 32 32 32
18 18 17 15 16 15 13 11 9 9 10 9 8 8 9 9 8 8 10 9 7 7 7 8 9 9 8 7 10 14 12 11 9 7 9 7 7 7 6 7 11 12 13 14 14 16 17 17 15 15 18 19 24 26 18 20 26 23 28 30 33 37 22 15 19 15 17 22 22 22 31 41 37 37 44 41 39 37 35 35 35 34 33 33 33 32 32 31
19 19 17 15 14 12 10 9 8 7 7 7 7 6 7 7 6 7 8 7 7 7 8 10 10 11 10 9 12 14 12 12 10 9 9 9 8 7 6 7 12 14 14 14 14 14 15 17 15 16 19 20 25 24 18 20 20 23 35 39 49 57 36 16 19 19 15 21 23 20 38 58 45 34 41 42 39 36 35 35 33 33 32 32 32 31 31 30
17 17 16 15 13 10 9 8 8 8 8 8 7 7 7 6 6 6 6 6 7 8 10 11 11 10 9 12 14 12 13 13 11 10 9 9 9 7 5 7 10 11 14 15 16 16 14 16 17 18 21 24 21 20 33 34 31 40 37 45 64 52 39 32 22 23 20 20 24 19 39 63 48 35 40 40 38 35 34 34 32 32 31 31 31 30 30 29
15 14 15 14 12 11 10 9 10 10 10 9 8 8 8 7 7 6 7 9 10 10 9 10 11 11 9 12 13 12 13 11 11 11 9 9 7 7 8 9 10 10 13 14 15 17 15 14 15 19 23 26 25 31 53 55 54 62 37 45 72 47 44 51 26 23 25 21 24 22 39 62 48 36 39 39 37 35 32 32 32 31 30 30 30 29 30 30
12 12 14 13 12 12 11 11 11 11 11 10 8 8 8 7 8 6 8 10 11 13 12 12 12 13 13 12 12 13 12 11 12 11 10 10 7 8 11 12 14 14 15 15 16 16 14 15 15 20 20 24 43 53 56 56 63 74 49 36 50 43 46 49 30 29 31 24 26 29 42 57 48 33 36 40 36 34 32 31 31 30 30 30 30 30 30 30
12 12 13 13 12 12 12 12 11 11 11 10 8 9 8 7 8 8 9 10 11 13 12 13 12 14 15 12 12 13 13 13 12 12 13 11 7 9 12 13 15 15 16 15 16 16 13 17 16 20 24 30 55 62 45 44 56 68 65 50 49 51 48 48 42 33 33 33 33 42 48 50 49 36 34 40 37 34 32 30 31 30 30 30 30 30 29 29
12 13 13 13 13 12 11 10 10 10 10 10 11 11 10 9 8 9 9 9 10 13 13 12 12 15 14 13 14 13 14 15 13 13 13 12 10 10 11 13 16 16 17 14 13 16 12 16 22 30 40 38 49 61 44 36 42 44 53 56 58 61 54 54 53 38 37 42 37 44 47 44 47 38 34 39 37 36 34 31 31 30 30 30 29 29 28 28
12 13 13 13 11 10 10 9 10 10 10 14 14 14 16 12 8 9 9 8 11 15 17 14 15 19 15 14 16 13 15 15 14 14 12 16 15 14 16 16 19 18 19 20 17 18 17 25 39 43 47 42 43 56 43 32 41 43 50 55 52 58 59 57 58 48 38 38 39 40 43 47 46 40 38 38 38 38 34 32 30 29 29 27 27 28 27 27
10 11 10 10 10 9 10 9 11 11 13 15 12 16 25 20 13 14 12 10 12 15 15 14 14 16 14 16 15 13 16 14 15 15 12 15 15 18 21 16 20 24 26 31 25 20 25 40 52 43 40 39 38 48 42 39 49 48 55 60 55 62 61 49 50 50 34 36 51 51 48 51 46 43 41 36 39 38 33 31 27 27 27 26 28 27 27 27
12 11 11 10 9 9 10 9 10 10 10 11 9 15 25 22 17 15 13 13 15 14 14 14 13 13 14 16 16 13 14 13 14 17 14 15 16 19 19 21 33 34 32 35 24 23 31 41 43 34 35 37 42 54 48 46 51 46 50 53 56 65 55 39 41 46 36 36 53 54 47 48 45 44 40 36 41 38 33 31 27 27 27 27 27 25 27 27
12 12 12 10 10 10 10 10 10 9 8 9 10 14 19 18 17 16 15 16 16 14 15 15 14 14 13 14 17 15 13 14 14 16 18 16 16 19 17 30 47 42 42 42 31 37 42 38 38 33 36 44 58 68 54 50 58 55 55 52 52 58 53 49 49 49 43 37 52 60 50 49 49 44 39 37 39 37 33 31 29 28 27 26 26 25 27 28
13 13 11 10 11 9 10 10 9 10 8 8 10 12 15 16 17 18 16 17 18 18 17 16 15 15 14 15 16 15 14 16 17 16 19 18 16 21 19 31 53 50 51 53 42 44 38 30 38 37 36 43 54 64 58 57 62 58 54 47 45 48 44 48 52 51 48 44 54 59 49 48 47 41 39 37 34 35 32 30 29 27 26 26 25 26 28 29
15 13 11 12 12 11 13 10 9 11 8 9 10 10 13 14 16 18 19 19 20 21 18 17 17 15 16 17 15 18 18 19 24 20 19 22 20 23 23 32 54 49 44 55 52 44 32 23 33 40 51 54 45 54 59 48 52 62 57 40 36 43 43 46 52 54 57 56 51 47 46 49 48 44 41 37 34 34 31 28 28 26 26 26 26 27 29 30
14 13 13 13 12 15 16 12 11 11 9 9 8 9 11 11 12 12 22 31 29 29 23 17 19 16 15 20 18 19 21 21 25 23 20 23 22 27 28 30 43 43 42 52 48 38 31 26 29 40 62 66 46 42 44 36 42 58 59 43 31 36 43 50 56 57 58 54 42 41 49 54 55 51 45 41 41 38 34 31 29 27 26 27 28 28 29 31
13 13 13 12 12 13 15 14 11 10 12 10 8 11 10 11 13 10 27 48 45 36 27 16 20 19 15 20 20 18 23 26 25 23 21 20 23 28 31 32 39 45 50 49 40 36 34 34 40 49 59 64 56 40 38 50 51 39 42 48 41 38 45 51 52 53 57 50 38 43 50 53 54 50 47 49 47 43 40 37 34 30 28 27 28 28 29 31
12 13 11 12 13 11 12 13 9 10 15 13 11 12 9 12 14 11 27 43 36 29 25 18 19 21 20 21 21 21 25 27 24 24 22 20 23 25 30 38 34 37 45 39 32 33 36 41 48 59 64 60 51 34 38 60 53 33 38 45 44 43 46 52 50 52 61 55 51 53 46 49 54 48 51 53 47 47 44 41 39 34 31 29 28 28 28 30
12 10 10 12 10 10 11 10 10 11 12 15 15 12 13 15 13 19 30 24 18 22 22 20 19 20 24 21 19 23 25 25 25 25 23 21 21 21 31 41 36 40 47 41 40 36 34 40 37 46 58 48 33 27 38 47 36 41 52 45 48 53 51 57 57 62 68 53 54 57 39 44 55 47 51 52 44 47 44 40 39 36 34 31 28 28 27 28
10 10 10 10 9 10 9 8 11 9 9 15 14 12 15 11 12 32 37 20 19 29 23 21 21 18 25 27 22 24 25 25 27 26 24 22 20 22 33 39 39 43 43 45 56 46 32 35 36 40 42 32 29 34 45 45 32 43 53 44 56 68 65 66 63 69 74 55 53 53 34 42 54 45 46 48 47 49 45 42 40 35 33 30 27 26 26 28
11 11 9 9 9 8 8 9 9 9 11 13 13 16 15 19 40 50 33 18 22 28 25 21 20 19 27 29 23 25 28 26 28 26 21 20 19 21 28 32 34 40 49 58 60 49 40 41 43 41 30 27 35 36 44 46 33 37 48 46 54 64 68 76 77 70 62 60 65 54 35 41 52 48 45 47 54 56 45 43 46 39 32 27 26 26 26 28
11 10 8 9 7 6 9 10 10 10 10 12 15 16 15 34 66 55 20 18 25 25 29 30 30 35 40 33 22 29 37 27 24 31 32 32 29 27 29 32 33 42 65 73 55 48 52 47 42 36 27 33 39 34 41 49 41 41 49 45 45 50 52 67 84 71 50 57 67 53 39 43 50 50 48 48 58 61 49 44 47 43 32 25 26 27 28 29
11 9 8 7 6 7 8 10 13 10 9 16 15 19 33 44 52 41 22 20 24 27 32 33 36 44 47 40 29 38 43 27 27 42 52 57 54 44 41 44 41 37 48 56 47 51 61 56 49 38 30 35 36 33 42 53 53 50 48 51 59 63 55 60 78 71 54 54 54 45 39 43 46 42 40 43 47 53 51 41 38 35 28 25 28 29 31 33
9 9 7 6 6 7 7 9 11 8 12 18 13 25 53 50 36 38 34 24 21 29 34 35 41 48 44 32 27 39 41 28 31 40 48 64 64 50 48 56 53 39 35 40 39 46 58 58 51 40 34 34 32 30 33 40 45 43 45 56 67 65 56 61 71 65 59 57 48 43 43 48 51 43 41 43 37 38 40 31 27 28 26 28 30 32 34 36
9 9 6 7 8 6 9 9 9 13 15 16 21 29 36 36 35 34 32 34 37 44 49 47 46 46 39 30 29 40 39 31 39 46 49 58 56 47 51 58 56 51 49 44 35 35 40 40 41 38 34 32 31 32 35 39 42 43 50 56 56 53 50 59 67 59 59 64 52 41 50 62 57 44 45 44 34 32 33 28 27 28 28 31 33 35 38 39
9 8 5 8 8 7 10 8 10 15 9 18 41 40 29 35 39 29 30 44 45 46 55 56 49 42 41 45 45 42 35 29 38 50 50 46 42 43 47 48 53 56 50 38 35 41 37 33 42 40 31 33 35 36 44 45 40 46 56 53 48 54 58 62 69 62 56 71 72 57 62 70 53 40 46 46 40 38 34 32 32 30 30 33 35 38 39 40
8 7 7 10 9 8 9 8 13 12 10 32 50 46 49 48 34 32 42 43 39 41 42 42 43 39 38 46 48 41 36 32 35 40 41 42 44 47 49 51 53 53 46 38 37 40 35 37 50 42 28 35 36 33 41 38 34 43 50 48 45 53 63 60 63 68 61 67 76 62 58 59 48 47 54 49 45 42 40 41 39 34 34 36 38 38 37 40
7 8 11 11 9 9 10 10 13 8 13 37 43 45 62 50 32 51 58 40 40 45 33 25 29 33 34 37 40 42 37 33 36 33 32 40 43 46 57 58 50 45 47 46 40 36 38 45 57 48 32 36 37 33 36 35 38 44 44 48 49 51 66 63 56 74 79 73 71 62 60 58 50 55 57 49 45 43 44 48 45 41 42 44 40 34 36 40
10 15 15 11 9 11 12 11 13 14 21 36 40 43 54 45 39 59 60 43 45 44 33 27 27 32 37 33 33 40 35 31 39 37 33 36 35 42 58 57 48 45 44 45 44 42 45 48 55 54 42 40 40 36 40 37 37 40 37 41 43 46 67 68 54 64 75 73 74 72 71 62 57 67 60 44 43 42 42 48 50 49 47 42 36 31 34 37
12 18 17 12 10 12 16 14 13 19 23 32 44 42 42 50 52 51 49 47 46 38 30 31 29 29 35 35 33 36 34 33 36 35 31 31 29 36 47 47 48 49 44 46 49 47 46 41 44 51 45 42 39 40 50 47 37 40 40 42 49 57 71 66 53 63 72 72 77 79 74 58 58 75 62 37 38 42 41 46 49 47 38 32 31 30 33 34
11 18 19 11 11 15 18 16 17 33 37 35 50 53 47 57 56 44 42 44 42 34 28 32 31 25 32 38 33 33 39 41 39 35 33 36 35 35 42 48 50 50 48 46 47 49 47 38 43 57 53 45 43 43 49 49 44 48 50 52 54 55 63 59 54 68 74 70 77 83 76 54 44 56 51 34 36 41 42 46 45 39 31 28 31 31 32 34
13 25 24 10 10 15 18 19 25 50 59 43 49 62 58 57 53 44 41 42 43 36 32 39 39 34 38 36 29 32 41 45 44 41 37 37 33 33 48 61 58 53 47 42 45 50 46 42 51 60 51 45 51 50 45 47 54 58 59 65 63 56 60 61 62 73 72 69 79 84 76 54 37 40 40 34 38 40 40 43 40 33 28 28 31 32 34 35
19 31 26 10 11 12 19 33 39 55 64 45 43 57 58 55 51 45 42 41 43 40 37 44 47 48 47 38 35 41 41 42 44 40 37 39 40 47 62 67 62 55 45 44 51 49 45 53 60 55 47 47 50 46 41 46 53 53 52 59 68 69 64 61 70 79 73 70 79 84 80 58 38 40 41 36 38 35 30 33 34 30 29 31 33 33 35 37
16 22 19 10 11 10 18 37 45 56 65 55 49 54 57 56 50 46 49 45 42 43 45 50 47 39 38 40 42 42 36 38 44 42 44 50 54 65 75 69 61 58 49 47 51 45 46 57 56 54 57 57 54 47 43 44 41 40 48 54 60 69 69 70 82 81 71 72 72 77 83 59 37 43 42 33 34 31 27 29 30 31 31 32 34 34 35 37
11 15 15 10 11 11 18 35 43 54 65 58 47 44 48 54 48 47 55 51 41 41 47 53 44 30 38 48 47 42 35 32 35 39 45 50 55 68 75 68 64 62 53 53 52 41 42 52 51 53 56 57 66 67 57 51 41 37 53 62 62 71 74 72 76 71 66 70 68 77 84 55 35 45 41 32 37 35 31 30 29 33 34 32 34 35 35 37
16 17 17 14 13 10 18 39 49 61 74 61 42 40 43 43 42 46 52 49 41 37 40 45 41 37 48 51 45 46 45 35 31 37 41 45 56 70 68 61 67 67 58 60 55 39 44 54 48 45 47 48 56 60 58 63 56 46 53 57 59 68 65 57 64 68 68 69 67 74 74 44 29 38 37 36 43 40 35 33 32 34 33 33 36 35 36 37
13 16 21 21 18 12 19 33 35 49 73 60 34 39 45 37 37 45 48 43 36 35 39 41 39 41 47 45 42 48 51 45 39 39 40 43 58 75 70 59 66 68 58 54 49 49 61 63 50 49 52 46 41 42 49 58 54 46 50 54 57 63 60 62 74 75 72 78 73 62 56 43 35 35 35 37 41 39 38 35 33 34 34 35 37 35 36 37
14 21 28 21 15 18 25 30 25 31 48 40 24 33 43 42 40 40 43 45 41 38 38 38 38 38 39 42 45 50 56 54 46 43 44 49 59 70 71 67 68 66 58 48 46 56 64 57 54 57 54 46 43 43 45 49 47 45 49 56 62 66 64 63 67 64 64 74 67 49 49 54 46 37 36 38 36 36 38 35 34 36 36 37 37 35 37 37
19 24 28 20 21 29 27 27 33 34 34 35 33 34 41 48 45 37 38 44 47 45 37 36 44 48 49 47 40 44 54 51 47 48 48 51 58 57 58 69 76 72 63 50 46 56 60 58 63 65 57 52 53 51 49 49 49 49 52 54 57 66 70 61 55 57 59 59 51 43 48 55 46 36 36 36 35 35 36 35 36 37 37 38 37 35 37 38
18 19 22 20 25 32 29 31 38 35 35 41 40 37 42 49 47 43 43 40 44 49 39 33 43 55 64 59 40 41 51 39 33 44 48 49 53 51 49 59 74 82 70 53 48 50 54 67 75 69 63 57 49 50 55 55 55 55 55 55 53 59 67 62 54 54 54 51 45 40 46 48 40 37 38 34 33 35 36 37 38 36 36 36 36 36 37 38
17 18 18 15 18 24 31 39 38 30 33 34 27 32 48 55 49 46 43 31 30 43 42 36 47 62 71 66 46 44 54 43 28 36 46 45 46 53 55 53 70 88 76 58 58 48 43 69 84 72 63 59 53 56 58 56 62 60 49 48 51 55 63 64 61 59 58 59 52 47 56 57 43 37 39 36 35 38 40 40 38 34 33 34 36 36 36 36
17 19 16 16 22 25 29 38 37 33 38 35 25 28 42 53 53 45 39 31 29 41 44 40 51 65 67 63 55 49 50 47 38 37 40 37 35 41 43 41 62 89 84 70 70 57 46 67 82 68 59 59 59 61 56 50 56 58 51 50 53 58 66 67 64 64 62 59 58 59 64 58 42 37 40 38 38 41 41 37 34 32 32 33 35 34 34 35
15 15 14 18 28 29 27 30 30 28 32 35 31 32 35 41 44 36 28 31 38 44 43 37 43 55 55 54 56 49 42 43 43 40 38 36 35 34 32 35 50 72 83 80 76 69 60 64 68 61 59 64 61 57 54 51 52 54 56 59 55 55 62 61 56 57 56 50 53 59 55 43 36 38 40 38 37 38 36 32 32 32 32 33 34 33 32 33
Wind_Speed
5 6 6 5 6 6 7 6 7 7 8 9 10 11 11 11 11 11 9 8 9 9 9 11 13 13 14 14 15 15 14 12 9 10 12 13 10 7 6 5 4 3 4 4 4 4 5 4 3 3 5 2 2 4 6 9 8 5 4 5 3 2 2 3 4 3 3 1 4 6 4 6 7 12 13 13 18 20 20 20 18 16 17 17 16 15 13 13
4 5 5 5 5 5 5 5 7 8 9 10 10 10 10 10 11 10 9 8 7 7 8 10 12 11 11 11 11 12 13 12 11 13 14 11 8 7 6 4 4 3 3 3 3 4 4 3 3 4 4 1 3 5 6 8 9 6 3 5 2 5 2 3 5 3 3 1 2 6 7 7 5 6 7 5 9 17 17 16 18 20 20 17 16 16 15 15
4 4 5 5 5 4 4 5 6 8 9 10 9 10 10 9 10 9 8 8 7 7 8 10 10 9 8 8 8 9 10 9 10 12 12 7 6 5 3 3 3 3 3 3 4 4 3 2 3 4 2 4 5 7 8 7 6 4 4 4 2 6 3 2 5 8 7 4 4 7 10 12 8 7 9 9 9 10 12 12 13 18 20 18 18 18 17 17
3 4 5 5 4 4 4 4 6 7 7 8 8 9 8 7 6 6 6 6 6 7 8 9 8 7 5 4 3 4 5 5 7 10 7 4 5 4 3 2 2 3 3 3 3 2 0 1 3 3 3 4 6 10 9 7 4 2 3 4 6 7 5 4 8 11 10 8 5 7 10 13 12 9 9 10 8 5 7 12 10 17 23 22 21 19 18 18
3 3 5 5 4 4 4 5 6 6 6 6 7 7 6 4 3 2 3 4 5 6 8 9 8 5 2 1 3 3 2 2 5 6 4 3 5 3 2 1 1 2 4 3 1 1 2 1 1 2 4 3 5 8 6 6 7 5 2 7 11 8 4 5 9 10 8 6 5 7 8 7 10 12 7 8 6 2 6 9 13 19 23 22 21 20 18 17
3 3 4 5 5 5 5 6 6 5 5 5 6 6 5 4 2 2 2 4 5 5 7 8 8 6 2 3 5 1 4 2 4 4 3 3 4 2 1 1 0 1 3 2 1 0 1 1 2 2 4 3 4 5 4 6 7 5 2 6 11 9 7 7 9 10 7 6 6 6 9 11 13 12 9 12 9 7 9 13 19 21 21 20 19 19 18 16
3 3 4 4 5 6 5 6 6 6 4 5 6 6 6 5 3 3 4 5 6 7 7 8 8 6 4 5 9 7 7 6 3 3 3 3 4 3 1 1 2 3 1 3 3 1 2 4 6 5 5 4 3 4 6 9 10 8 2 3 9 12 10 9 10 12 10 10 11 13 15 13 14 10 8 14 13 13 16 19 21 21 21 19 18 18 16 14
3 3 4 4 4 4 4 4 5 5 4 5 6 6 7 6 4 5 6 7 7 7 7 9 9 7 4 4 6 8 10 8 4 3 3 4 4 2 1 1 4 5 3 3 2 2 4 7 7 4 4 3 3 4 4 8 9 6 3 4 9 10 10 10 11 13 14 17 18 18 16 10 14 15 11 13 16 18 20 21 20 21 21 18 17 16 14 12
3 3 4 4 4 3 2 3 4 4 3 4 6 6 6 7 6 7 8 8 7 6 6 7 7 5 2 2 4 6 8 8 6 4 3 4 4 3 4 5 6 7 8 8 4 3 4 7 6 2 4 4 5 5 4 4 2 2 5 7 8 8 8 9 11 12 14 18 18 17 14 13 19 16 9 11 19 20 21 21 20 20 20 18 15 14 12 10
3 3 4 5 5 4 3 4 4 4 3 4 4 5 5 6 7 8 9 9 7 5 4 4 4 3 1 1 3 5 6 6 5 4 3 5 4 5 7 7 8 10 11 10 8 6 6 6 6 7 7 5 5 5 5 4 3 5 9 10 9 8 6 9 12 12 12 14 14 13 10 11 13 7 3 12 21 21 21 20 19 19 17 16 14 12 11 10
3 3 4 4 3 3 4 5 5 5 4 4 4 4 5 5 6 9 10 10 8 7 6 6 6 6 2 3 7 7 5 5 5 4 5 6 5 5 8 10 11 11 12 11 10 9 7 6 7 8 5 4 5 5 5 6 7 8 11 9 5 5 5 6 10 8 7 7 11 14 9 4 2 2 9 18 22 20 19 20 19 17 16 14 13 11 10 10
3 3 3 3 2 4 5 6 7 7 6 6 6 5 5 5 7 9 11 11 7 5 4 5 6 7 4 6 12 10 7 6 4 5 6 5 6 6 9 13 14 14 13 13 13 10 7 5 7 6 5 7 5 3 5 5 6 7 8 5 4 6 3 2 3 4 2 4 11 13 5 2 4 2 14 22 22 20 17 19 18 16 15 14 13 11 11 11
2 1 2 3 3 5 7 8 9 8 8 9 8 7 6 6 8 8 9 8 5 4 4 5 5 4 4 8 12 10 9 8 4 4 5 3 5 7 10 13 15 16 14 14 14 11 8 4 6 7 8 7 3 4 6 5 6 5 4 4 2 7 2 1 2 1 1 4 10 8 1 4 3 4 17 22 22 20 17 18 18 16 15 14 13 13 12 12
1 0 1 3 5 8 8 9 9 8 7 7 6 6 6 6 8 8 7 6 5 5 4 3 5 4 6 9 10 11 10 10 6 4 4 4 5 8 10 12 12 11 10 11 12 12 11 4 7 10 9 6 6 7 6 6 6 3 2 3 2 2 3 4 4 3 1 1 5 5 3 5 5 6 18 22 21 20 17 18 17 17 17 15 15 14 13 13
2 0 3 5 6 8 9 8 8 7 6 6 5 4 4 5 6 6 5 5 6 4 3 2 2 3 8 9 8 10 9 9 7 6 7 6 8 11 11 12 11 9 8 7 6 7 10 6 9 9 6 5 6 5 3 4 4 4 1 2 3 2 4 8 4 1 2 2 0 3 3 5 5 7 17 22 21 19 17 18 18 18 18 17 16 16 14 13
2 2 5 6 5 6 6 6 5 5 5 5 5 5 4 4 4 4 5 5 4 3 3 3 2 3 6 6 5 8 9 10 9 6 8 7 9 12 13 12 11 9 7 5 3 3 5 8 12 13 9 4 4 4 4 4 4 4 2 2 3 1 3 5 2 2 1 2 2 3 2 3 5 7 15 22 22 18 17 19 20 19 19 19 17 16 15 14
4 4 6 6 5 4 4 4 4 3 3 4 4 3 1 3 4 5 6 6 4 4 4 4 4 6 6 4 4 6 9 12 11 5 6 7 9 11 11 9 8 6 6 5 3 3 4 6 8 9 10 6 3 4 3 3 3 4 3 1 3 2 2 4 3 3 4 2 3 4 2 4 6 6 13 21 22 19 18 20 21 21 20 20 18 17 16 15
7 6 7 7 5 5 5 6 7 7 8 8 7 6 5 1 5 6 5 4 3 2 3 3 3 5 5 6 5 4 6 11 12 6 5 6 8 8 6 4 4 3 4 5 5 4 4 6 6 3 6 6 4 6 2 3 2 3 2 1 3 3 2 4 4 3 6 5 4 3 1 5 6 5 9 18 22 20 20 20 22 22 21 20 19 18 16 16
9 8 8 8 7 8 10 11 12 11 10 8 6 6 7 6 4 4 4 4 2 2 1 2 4 3 1 7 6 2 3 9 11 5 4 6 7 5 3 2 2 2 3 4 6 7 5 5 6 4 3 4 2 4 4 4 4 5 4 3 3 4 4 5 6 4 4 5 6 2 3 5 6 6 7 15 20 20 19 19 21 23 22 21 20 19 18 18
9 9 9 9 10 11 11 9 7 5 3 1 2 3 1 3 5 5 5 7 8 8 4 4 7 6 3 7 8 2 2 7 11 6 3 4 4 4 3 2 3 5 4 1 3 6 5 5 4 1 3 4 4 5 3 1 4 5 3 2 4 4 5 6 6 6 4 4 6 4 4 5 7 8 8 13 17 17 18 19 21 23 23 23 22 21 19 18
7 7 7 7 8 8 4 3 2 2 3 4 4 3 1 0 1 5 10 12 12 11 8 6 5 5 4 8 10 5 2 3 10 9 3 2 5 3 1 2 4 5 4 1 1 3 5 6 1 5 7 4 2 3 3 3 3 4 2 2 3 3 6 7 4 5 5 5 5 4 3 7 7 8 9 12 14 15 20 21 22 25 25 24 23 21 20 18
7 6 5 5 5 3 1 2 2 3 4 2 1 2 4 5 5 6 7 8 9 9 9 8 7 6 4 6 10 8 2 3 8 10 7 4 4 2 1 3 5 2 3 3 3 4 6 3 5 7 3 2 4 5 5 3 4 4 2 1 3 3 5 7 3 3 5 3 5 5 4 8 7 7 9 12 13 15 21 23 23 25 25 25 24 22 20 19
7 7 6 5 3 2 0 0 0 3 4 5 6 7 8 8 7 6 5 5 5 5 6 6 9 9 6 5 8 8 7 6 8 12 11 6 6 7 6 6 5 2 5 4 2 2 3 2 6 3 1 4 4 6 7 5 3 3 3 1 4 3 1 4 4 5 4 2 4 5 6 6 3 2 7 11 14 12 15 21 23 24 25 25 23 21 21 22
7 7 6 5 5 4 3 3 1 1 3 5 6 6 7 7 6 4 3 3 2 2 4 6 8 9 8 8 6 6 11 10 8 12 13 8 6 8 6 5 5 4 4 3 6 6 1 3 2 5 6 5 4 5 6 5 4 1 3 3 4 4 3 6 4 7 6 2 2 3 6 6 1 2 6 8 10 11 12 17 21 24 25 23 21 22 23 24
6 6 6 6 5 4 4 4 3 1 2 4 3 3 3 3 4 3 1 3 1 2 3 4 6 6 7 9 6 2 8 10 10 12 11 10 5 4 4 4 5 2 3 2 8 5 1 2 0 3 6 6 4 1 1 3 2 4 3 5 6 6 6 6 4 6 5 4 2 3 4 5 3 4 7 5 5 9 11 14 20 24 25 24 25 26 26 27
4 4 4 5 5 6 4 4 5 2 2 3 2 1 0 1 3 3 1 3 2 4 2 2 4 4 5 10 5 3 3 5 10 12 9 9 6 3 4 3 4 3 5 1 5 2 1 3 2 3 5 6 4 0 2 4 4 2 3 5 5 4 5 6 2 1 1 2 3 3 3 5 5 4 7 3 5 9 9 13 20 24 26 27 29 29 29 29
2 3 3 4 5 6 5 5 4 2 1 2 3 3 3 3 3 3 2 4 3 2 1 1 2 4 5 10 5 4 1 1 5 11 9 8 7 4 3 1 3 2 3 2 2 1 1 3 5 5 5 5 4 2 3 5 4 2 2 3 1 5 6 5 3 3 2 2 4 2 4 3 5 5 4 2 4 8 9 13 18 24 29 31 32 32 32 32
3 4 5 5 6 6 6 5 4 2 1 2 2 3 3 2 2 1 3 3 2 0 2 0 2 4 5 7 6 5 2 0 2 8 10 6 5 5 4 2 4 2 1 3 2 3 1 1 1 4 5 3 0 2 4 5 2 6 5 2 4 6 4 3 5 4 1 2 4 4 2 1 6 5 3 3 2 8 11 13 16 23 31 33 35 34 33 33
4 5 6 7 8 7 6 5 4 3 2 1 1 2 1 0 1 2 4 1 2 1 2 1 2 3 4 3 6 6 5 3 2 4 7 6 4 5 6 3 6 5 3 4 4 3 1 0 2 5 4 0 4 5 4 6 3 7 6 4 2 2 1 2 4 3 2 3 3 4 2 1 5 5 2 2 2 7 10 10 12 20 28 31 33 32 31 32
5 6 7 8 8 7 6 5 4 3 3 2 1 2 3 2 3 5 2 2 1 1 1 2 1 4 6 2 4 7 4 3 4 4 6 7 6 7 8 5 4 5 2 4 3 2 1 1 1 2 2 2 3 4 3 6 5 8 7 5 3 4 3 2 2 3 4 3 5 5 2 3 3 6 3 3 5 7 7 7 8 14 21 24 26 27 28 29
5 6 7 8 8 7 6 4 4 3 3 3 2 4 4 2 4 5 1 3 1 1 1 3 2 3 6 2 1 6 4 4 7 6 5 5 5 7 8 3 2 3 3 4 3 4 4 1 1 1 2 2 2 3 1 1 3 5 4 3 3 3 3 4 4 4 3 4 5 4 2 3 2 6 5 5 7 6 6 7 6 10 17 19 20 21 22 23
5 6 7 8 7 6 4 3 2 4 4 4 4 4 3 2 2 1 2 2 1 2 0 1 2 3 4 3 2 4 3 3 7 6 3 3 3 5 4 1 1 2 3 3 2 4 4 3 3 3 3 1 2 1 3 3 5 6 3 3 4 3 4 3 3 2 1 5 4 4 2 0 5 8 8 9 10 9 12 13 12 12 16 16 16 16 17 19
6 7 7 7 6 5 3 2 3 5 5 5 5 2 5 4 2 4 2 2 1 2 1 1 2 2 2 2 3 4 2 1 4 4 2 2 4 2 2 0 3 1 2 2 2 4 3 4 4 2 2 1 3 1 1 2 3 4 2 3 3 2 4 3 3 2 3 5 3 3 1 2 5 7 8 10 10 11 16 20 18 16 16 16 15 15 15 17
7 7 6 7 6 4 2 2 4 6 6 6 4 3 5 1 4 3 1 3 1 2 2 1 2 3 2 1 2 2 1 1 3 3 3 3 3 1 2 3 1 3 1 1 1 0 1 4 2 1 1 0 2 2 3 3 1 1 2 4 3 2 1 2 3 2 4 6 4 1 1 3 3 4 7 9 10 11 14 19 19 18 19 18 18 17 17 19
7 6 6 6 6 4 2 2 5 6 7 6 3 5 3 4 4 2 2 4 1 1 1 2 3 3 3 2 2 1 1 1 2 3 4 2 2 2 1 3 2 3 2 0 1 1 1 4 4 1 2 1 2 2 2 4 1 1 2 3 1 2 3 1 3 4 1 4 4 2 3 5 4 7 6 4 8 10 11 16 18 21 23 21 21 22 21 22
7 6 6 6 5 3 2 4 6 7 8 6 5 3 4 4 2 3 2 1 1 2 1 2 3 3 2 3 3 3 1 1 1 2 2 1 2 2 2 2 1 2 3 2 1 0 1 4 3 3 2 2 2 2 1 2 1 0 2 1 2 3 5 3 2 2 3 1 3 2 4 4 3 7 6 4 6 8 8 13 18 23 23 21 24 25 24 24
7 6 4 4 5 2 3 5 6 7 7 5 4 2 5 2 1 3 1 1 2 3 4 0 1 1 2 2 2 3 2 1 1 1 1 1 1 3 2 1 2 2 3 2 1 1 1 4 4 1 1 1 1 1 2 2 1 2 1 3 2 2 4 4 1 4 4 1 4 2 6 6 3 4 6 4 6 9 8 11 15 20 21 22 26 27 25 24
6 4 2 4 5 1 3 4 5 7 5 4 2 3 3 2 2 2 1 2 2 3 4 2 2 1 2 2 2 3 1 1 1 1 1 1 1 3 3 1 2 2 2 2 1 1 2 2 5 1 2 3 2 2 2 4 2 3 3 3 2 1 1 1 0 2 2 3 5 4 6 5 3 4 5 5 7 9 9 8 9 14 19 23 26 25 23 21
5 3 2 4 4 1 1 3 5 5 4 3 2 3 1 1 1 2 3 2 2 3 2 3 1 0 3 3 2 3 1 2 1 1 1 1 1 3 4 2 2 2 2 3 2 1 2 1 4 3 1 2 3 1 2 2 2 3 3 1 2 2 3 1 0 2 1 2 4 4 5 4 6 6 5 8 9 8 9 7 7 13 19 22 22 21 20 20
5 1 1 4 3 2 2 3 4 4 3 1 3 2 0 1 2 2 3 2 2 2 1 3 2 1 3 3 2 2 1 2 3 1 2 1 1 2 3 2 3 3 1 1 2 0 2 2 3 4 3 1 1 3 5 5 3 2 1 1 1 1 2 0 0 3 3 2 2 3 4 7 7 4 6 11 11 8 9 8 8 14 19 19 20 20 20 20
4 1 1 3 2 3 3 3 3 3 3 1 2 1 1 1 2 2 3 2 1 2 2 3 3 3 3 2 2 2 2 1 2 2 2 2 1 1 2 3 4 3 1 1 1 0 1 2 3 4 3 2 4 4 4 5 5 5 3 4 3 2 2 1 3 2 2 3 4 2 4 11 8 3 6 10 8 8 11 10 10 15 18 19 20 20 20 19
2 0 1 3 1 3 2 2 3 3 3 2 1 1 1 1 2 2 3 2 1 1 1 2 2 2 3 2 2 3 3 1 2 2 2 3 3 2 3 4 4 3 2 1 1 1 2 3 1 4 5 5 5 3 1 3 3 4 3 3 3 4 5 4 3 3 0 2 2 3 2 10 7 5 6 8 8 11 14 13 14 17 19 19 20 20 19 19
1 0 2 3 1 4 1 2 3 3 2 1 1 1 2 1 2 2 2 2 2 1 1 1 1 1 2 1 1 3 2 2 3 3 2 3 1 1 4 4 3 3 2 1 1 1 1 2 1 4 5 3 4 3 1 1 1 1 2 2 4 3 4 5 5 3 2 3 2 2 3 9 7 3 6 9 10 12 14 14 16 19 21 20 20 20 19 19
2 1 2 3 1 4 2 0 1 1 2 1 1 0 1 1 3 3 2 3 2 2 1 1 1 1 1 1 2 2 2 1 2 1 1 2 1 1 4 4 3 3 2 2 2 3 2 1 1 2 6 6 5 5 4 3 0 3 3 2 4 4 6 4 2 2 1 5 6 4 5 10 7 1 2 7 7 9 14 17 18 20 22 23 22 21 20 20
2 1 1 2 1 4 3 2 4 3 2 1 1 1 2 1 3 4 2 2 3 3 1 1 1 2 1 2 2 0 1 0 1 1 1 1 2 1 3 4 3 3 2 3 3 4 2 2 2 1 2 4 5 4 3 2 1 2 2 3 4 6 8 4 2 3 3 5 6 6 7 11 10 4 3 6 6 8 16 19 19 21 24 25 24 23 22 22
1 0 1 1 1 2 2 2 3 4 4 3 1 1 2 1 2 3 3 2 3 3 2 1 2 2 1 1 1 1 2 1 1 0 1 2 2 1 2 4 3 2 3 4 3 3 2 1 3 5 6 7 7 6 2 1 1 5 5 5 6 6 7 5 4 3 5 3 3 9 12 14 20 16 11 11 9 10 14 17 20 23 26 28 25 24 24 23
1 1 1 1 1 0 2 1 2 3 4 5 2 1 4 2 1 1 3 3 3 4 3 0 2 2 2 2 2 2 2 1 1 1 2 3 3 2 1 4 3 2 4 4 2 2 3 2 5 7 10 12 9 8 5 2 5 10 9 6 8 7 7 7 7 7 5 4 6 12 9 10 18 18 15 15 15 12 13 19 24 27 29 28 25 22 23 24
1 1 2 1 1 1 1 0 2 3 4 3 2 1 3 2 1 2 4 2 1 4 3 1 3 5 5 5 3 1 2 1 1 3 2 1 2 2 1 2 3 3 4 3 2 3 4 3 5 5 8 12 8 8 10 7 7 10 10 9 9 9 11 14 16 11 8 6 13 12 6 9 16 19 17 18 19 18 21 27 30 30 30 27 23 22 24 26
1 1 2 2 2 2 2 1 2 4 4 2 1 1 3 4 5 4 2 2 1 3 4 2 6 7 6 5 3 3 3 2 2 4 2 2 2 1 0 2 2 3 3 2 1 2 3 3 4 2 5 12 9 8 9 7 6 9 11 11 10 11 14 16 17 12 9 13 18 18 17 17 18 19 19 25 31 31 32 33 32 32 32 28 24 25 27 28
2 2 2 3 1 1 2 1 3 4 1 1 0 2 3 6 6 4 2 4 2 2 4 5 6 5 5 5 4 4 7 6 3 4 4 4 2 3 3 3 3 3 1 1 0 1 3 3 2 3 3 10 7 4 4 5 6 10 14 13 11 11 11 12 12 8 8 13 18 17 17 17 19 21 20 28 35 31 27 29 29 31 32 28 26 27 29 30
4 4 3 2 1 1 2 1 3 3 0 1 2 3 2 5 7 4 3 5 5 4 6 7 5 2 3 4 6 7 8 7 5 5 6 5 4 4 4 4 6 5 2 2 1 2 3 2 2 5 3 7 3 5 7 7 7 11 17 15 9 8 7 8 7 6 8 10 11 9 8 10 15 15 13 20 25 21 22 27 28 30 31 27 26 30 32 32
4 5 5 3 1 1 2 2 3 2 2 3 4 4 3 4 5 6 2 3 4 4 5 7 6 4 3 3 7 8 7 5 4 4 4 5 6 5 5 5 7 7 5 4 1 1 3 1 1 2 2 6 4 5 7 8 9 8 10 7 6 6 6 5 6 8 10 7 4 5 8 10 12 12 12 15 16 16 22 27 28 30 33 31 30 33 35 35
Wind_Direction
96 98 102 103 106 98 86 88 94 92 86 92 107 115 115 111 108 107 108 112 119 123 126 123 115 105 96 89 81 79 81 84 95 102 89 69 65 72 73 84 93 103 109 99 106 123 136 117 88 5 353 352 31 29 45 48 53 66 79 81 106 148 135 177 176 182 156 188 313 1 63 116 113 115 107 70 70 86 86 88 96 98 100 100 103 116 135 159
102 104 109 109 108 101 90 96 99 95 91 91 103 116 117 111 107 105 103 105 116 132 146 137 120 110 100 88 81 82 82 83 88 84 72 61 61 58 50 71 87 106 123 118 130 130 128 98 47 351 350 51 58 48 66 59 57 65 100 89 150 190 180 177 162 138 89 116 333 38 72 78 78 139 135 79 85 101 94 92 103 106 106 108 119 135 149 163
110 111 116 113 108 100 90 95 101 102 99 96 102 112 115 113 110 100 93 94 101 121 147 146 129 118 103 89 86 85 86 82 71 64 62 60 56 53 45 60 84 113 133 144 155 147 139 103 19 1 52 89 61 67 70 51 50 66 96 83 220 188 146 139 128 100 68 33 24 65 79 64 65 131 130 118 104 92 111 126 122 123 129 134 145 154 160 170
119 121 120 114 107 93 82 86 102 113 106 101 103 106 110 112 111 95 86 90 94 115 143 151 144 135 117 96 85 87 94 73 41 43 51 53 50 60 71 66 112 137 147 144 151 160 220 321 359 16 106 99 57 68 56 29 60 74 94 135 193 172 120 107 118 101 65 30 47 97 91 70 74 105 132 133 93 43 149 162 162 148 147 152 160 166 171 179
122 128 122 118 109 91 83 85 102 119 112 101 97 96 99 101 112 100 90 102 106 121 146 160 166 170 170 344 320 258 192 34 4 19 29 33 43 53 84 116 203 181 176 155 156 290 323 257 207 63 95 79 46 66 42 37 83 65 49 151 164 161 117 114 120 95 54 32 70 98 103 103 87 80 107 135 119 180 175 171 171 156 155 161 164 169 175 181
125 131 124 122 114 102 95 93 98 110 108 95 86 78 73 74 97 119 127 136 127 126 146 163 179 197 205 34 29 245 182 100 350 4 14 24 40 41 113 176 254 213 203 181 207 330 21 140 134 89 87 60 41 74 48 42 95 99 58 146 150 140 120 130 113 74 48 54 70 95 126 131 102 80 91 107 121 155 152 157 160 157 161 164 166 172 177 182
123 129 126 126 121 116 105 99 96 92 95 89 81 72 64 63 84 126 144 140 127 120 132 150 164 173 153 79 60 79 103 80 15 11 13 21 33 28 128 186 22 10 226 189 194 105 87 108 100 95 90 76 60 78 67 64 92 112 97 152 141 119 110 133 111 77 67 83 97 112 124 126 111 106 102 105 128 147 150 158 160 161 164 166 171 175 180 187
126 129 128 129 124 121 113 108 97 87 85 84 84 81 70 63 83 123 134 133 125 117 128 140 147 154 143 88 65 66 60 39 15 20 10 23 32 30 94 79 32 33 69 127 153 122 117 101 92 90 82 88 97 90 90 74 69 83 113 141 136 119 111 131 115 92 93 106 117 110 104 115 121 120 110 119 141 149 156 161 162 163 165 171 177 180 187 196
131 133 135 137 143 145 132 106 91 86 87 84 93 97 81 69 87 119 127 133 131 122 131 136 144 158 134 64 64 50 27 12 10 18 21 45 46 59 76 63 56 64 73 74 80 132 139 99 82 100 110 107 97 82 77 76 36 66 125 144 143 133 126 138 124 101 108 124 125 106 98 119 126 116 99 137 148 151 160 160 163 167 167 174 180 186 196 206
139 150 156 160 170 162 118 89 84 80 86 94 107 118 110 87 95 119 127 134 137 134 135 137 156 170 235 268 87 54 10 6 16 18 52 66 58 62 71 74 76 79 77 75 82 97 108 100 97 111 112 98 83 69 50 77 136 111 115 130 127 127 137 154 142 109 107 137 137 123 126 135 145 144 116 160 156 156 162 159 165 172 173 179 184 191 200 213
140 158 164 161 167 137 94 83 77 71 82 104 116 134 144 124 116 125 131 135 133 132 116 103 97 83 117 152 96 72 21 22 35 47 71 74 70 70 81 87 84 83 79 75 75 77 82 105 131 129 111 100 96 79 71 93 122 118 115 113 79 91 117 137 155 138 101 144 153 136 134 106 112 186 157 164 164 166 170 163 168 178 180 183 188 196 203 214
130 148 157 142 121 92 86 83 80 80 88 97 103 119 141 150 145 138 139 141 136 135 115 98 97 92 115 99 75 63 39 38 49 59 67 76 73 77 92 94 89 85 79 72 66 61 75 117 153 148 118 124 119 76 90 98 113 119 112 110 353 16 70 81 150 190 118 163 168 139 116 349 3 134 158 164 168 174 176 168 173 180 182 186 192 201 206 216
116 146 162 129 100 88 89 89 91 93 93 94 96 103 117 137 153 153 150 152 149 132 118 94 96 118 123 78 60 55 47 41 38 38 46 78 82 85 101 104 100 90 78 68 58 46 55 107 162 143 124 121 104 95 103 79 92 109 78 93 9 9 343 249 43 276 147 159 180 157 283 276 284 169 165 170 174 175 172 170 178 180 183 190 196 206 210 216
36 179 139 116 105 95 91 94 99 95 90 95 101 109 123 131 143 151 152 166 171 155 146 99 72 88 107 85 57 49 46 40 38 31 41 87 108 105 110 110 107 96 78 63 52 39 38 76 153 128 113 105 105 114 90 41 62 89 27 39 58 52 273 285 345 323 97 175 192 173 244 255 258 189 170 178 182 180 175 173 181 184 188 195 200 209 215 220
352 63 121 125 115 98 91 94 97 90 82 90 111 119 129 143 157 169 162 164 176 182 202 177 87 85 92 85 56 43 43 45 53 55 54 84 118 115 109 105 102 99 86 64 50 36 34 85 126 97 84 97 107 107 41 9 29 40 72 316 350 128 271 304 308 166 114 285 233 119 245 258 258 201 176 182 186 188 187 181 186 190 193 199 204 211 218 226
26 93 128 135 127 107 94 88 90 89 77 85 115 119 115 132 146 172 176 163 153 152 152 141 118 90 78 75 60 40 38 41 43 45 50 77 120 118 109 104 99 93 82 63 45 47 51 84 87 60 50 73 87 82 45 18 0 4 106 217 283 251 285 316 277 180 95 268 354 43 220 239 253 205 181 187 190 194 192 187 191 196 199 204 209 215 222 229
67 108 130 136 136 119 88 75 90 101 94 97 116 123 141 176 158 147 156 153 137 125 125 133 106 78 67 62 55 28 28 31 30 47 63 78 119 123 113 104 93 82 74 60 51 95 75 62 73 57 46 49 59 83 63 351 325 314 25 65 267 272 286 319 300 295 12 2 344 20 163 223 247 194 177 191 196 197 195 194 197 200 204 208 213 219 226 232
84 104 122 124 122 107 92 94 103 106 105 98 87 76 71 117 197 181 165 163 161 139 124 133 99 81 60 34 22 5 22 25 23 45 78 87 118 125 117 102 85 81 62 50 43 60 60 49 77 76 29 27 36 68 115 238 212 229 284 349 293 311 285 283 282 300 10 359 324 0 257 253 252 212 183 194 199 202 204 204 205 206 208 212 217 223 230 235
88 97 111 116 115 109 107 104 104 107 106 99 80 68 68 75 108 164 192 212 188 126 125 25 49 108 97 20 21 23 45 33 23 36 107 104 113 119 113 94 58 67 66 52 22 24 45 59 62 57 11 353 0 107 145 203 184 192 201 183 235 277 273 259 261 281 356 337 294 258 229 233 227 230 203 193 200 207 210 208 207 208 211 215 221 227 231 236
91 93 102 110 117 117 110 98 97 107 116 126 11 355 1 84 67 67 95 104 92 93 98 63 68 100 96 31 36 78 108 42 30 37 116 130 137 121 92 83 55 51 50 59 356 12 52 72 54 121 219 262 249 178 152 231 181 169 152 178 238 253 271 272 267 285 348 348 276 232 217 230 215 224 211 191 197 205 205 203 205 208 213 219 224 228 232 240
92 95 99 108 123 125 107 58 36 346 311 289 299 302 269 220 85 80 83 84 83 86 82 72 76 86 73 42 39 53 143 69 39 43 59 160 170 150 37 72 79 53 5 6 88 20 60 78 122 219 214 228 215 127 30 355 145 138 154 213 291 271 271 287 271 283 4 27 280 274 284 262 232 217 210 189 192 206 204 202 207 211 216 222 226 230 235 244
86 88 96 112 134 149 273 324 18 13 359 354 4 122 108 89 105 106 92 90 85 83 75 67 69 69 69 45 33 36 91 88 42 42 52 110 146 132 28 72 88 97 340 13 58 22 44 81 233 238 220 129 73 59 37 36 108 103 131 152 304 275 286 306 300 307 13 33 289 313 312 268 244 214 216 204 202 216 214 213 217 218 219 223 226 232 238 245
85 84 91 102 106 104 70 341 42 24 37 76 91 105 110 98 93 88 94 110 98 77 66 61 61 56 54 44 28 34 60 59 26 27 39 73 93 72 78 76 74 79 359 13 127 91 57 238 232 224 105 104 63 24 35 43 62 100 132 132 279 281 9 291 297 334 341 229 254 307 307 281 265 214 239 226 219 229 229 225 228 228 228 229 232 241 244 247
88 86 84 83 80 77 63 51 47 38 81 102 99 105 113 98 77 68 90 105 102 66 55 47 43 42 42 30 15 41 60 57 29 22 32 50 76 69 74 73 62 56 2 34 118 120 130 240 184 74 61 103 104 13 41 58 3 306 179 179 266 275 222 227 283 331 332 302 243 320 322 304 307 229 256 242 232 244 239 230 231 231 233 236 241 247 248 252
87 85 76 66 60 52 46 36 28 36 147 131 114 111 111 82 34 11 62 77 0 324 26 36 28 30 27 12 359 73 64 53 40 27 29 41 63 91 81 62 59 103 235 66 87 100 93 290 227 78 48 64 105 47 98 125 0 322 230 210 240 261 252 250 308 342 357 354 308 46 10 298 301 249 251 248 241 249 240 235 236 232 232 235 240 245 249 254
77 73 63 51 41 34 25 13 14 20 164 173 206 203 14 327 348 345 42 66 343 297 353 34 17 20 14 4 0 142 70 38 42 29 28 39 44 118 110 42 47 154 206 133 78 133 217 0 28 110 76 50 64 110 212 135 79 349 216 189 215 253 271 272 293 9 19 290 285 71 116 264 307 278 259 258 243 253 252 248 245 238 234 234 239 246 251 255
42 32 27 23 20 14 3 350 348 345 170 221 239 237 280 300 331 336 26 42 337 278 40 11 7 25 21 13 24 140 111 336 54 25 20 32 29 87 127 3 45 106 178 124 67 242 204 13 30 66 70 55 48 342 217 137 97 269 221 119 271 282 277 260 191 173 228 272 311 19 137 233 294 276 287 315 251 265 266 256 251 242 238 237 241 248 253 257
342 342 348 355 356 350 344 335 325 315 272 252 243 243 271 289 301 349 78 68 315 341 54 63 99 55 39 35 46 90 64 49 102 12 10 32 32 65 92 119 137 133 49 116 207 274 79 346 17 90 66 45 25 254 203 146 122 259 256 329 305 286 262 212 151 171 254 14 324 309 117 188 274 271 349 22 271 274 264 254 249 242 239 240 243 250 256 259
320 321 330 338 341 338 332 322 307 294 271 241 227 235 229 142 299 37 80 127 295 65 65 61 125 15 355 32 36 45 50 49 72 8 16 50 47 61 81 97 126 119 53 96 177 241 41 344 203 127 92 344 247 248 195 162 240 285 302 324 343 17 27 121 126 140 54 32 265 251 134 116 276 274 337 37 257 258 256 253 250 244 243 243 247 253 258 259
320 320 325 330 334 329 321 313 293 271 249 220 193 154 125 92 69 62 54 243 318 39 4 4 254 321 348 12 12 15 39 37 24 25 42 65 63 65 86 94 102 112 47 43 103 242 328 38 226 134 134 221 259 281 210 186 261 318 342 344 16 35 26 55 79 94 65 335 256 229 174 110 302 279 236 199 224 223 233 255 256 247 245 245 250 256 259 260
331 326 327 329 330 325 317 310 278 236 210 193 161 132 125 69 69 93 210 237 66 325 348 17 322 358 21 68 357 352 6 10 7 24 39 48 44 40 62 77 50 67 8 2 18 322 338 355 259 272 240 262 0 336 287 168 344 8 18 355 9 356 4 16 357 40 65 287 252 222 222 121 217 269 242 232 241 218 216 241 242 236 238 244 252 258 261 261
338 329 329 331 328 324 315 297 245 202 193 172 154 141 120 46 20 162 259 313 7 305 1 29 335 38 38 39 22 328 327 357 6 36 57 40 42 33 42 109 179 25 336 308 328 333 320 263 293 329 268 265 68 353 326 359 16 32 44 37 36 355 4 8 330 9 232 263 230 197 297 177 224 255 258 258 259 237 224 228 228 231 238 250 260 264 264 259
338 327 330 333 332 330 310 271 212 189 185 162 156 133 86 76 246 221 273 336 348 310 34 56 358 60 61 22 359 313 313 347 350 23 65 72 69 56 0 42 144 127 295 269 325 345 331 299 320 348 271 215 118 137 314 325 4 21 55 77 74 43 18 321 294 330 277 277 248 186 226 282 272 273 246 243 257 254 241 235 234 240 249 260 268 269 265 257
333 327 325 330 336 329 305 253 202 186 177 160 148 83 78 145 236 206 254 267 249 5 36 70 21 30 48 49 291 293 31 328 330 18 24 41 61 40 318 329 55 107 104 47 356 14 336 302 281 171 249 13 126 168 166 155 86 314 167 124 111 130 121 256 253 249 280 296 288 242 162 206 260 271 222 231 270 277 254 238 235 246 253 259 264 264 261 255
328 327 319 324 331 314 288 236 205 188 178 166 104 70 124 227 245 184 229 248 240 0 0 40 63 53 4 323 300 317 125 286 349 49 26 39 123 171 226 291 332 89 116 63 291 175 237 273 258 293 301 132 134 217 143 107 101 243 147 95 68 180 152 168 215 205 247 326 294 262 224 208 233 267 258 277 290 277 252 239 238 247 252 255 258 259 259 258
324 324 319 325 326 298 251 228 207 187 183 161 77 76 195 228 239 176 196 184 134 147 107 10 60 86 310 300 328 354 38 288 0 51 11 43 162 186 187 231 232 121 135 154 231 244 4 284 285 348 339 104 115 222 149 82 186 119 69 154 226 161 123 111 280 313 65 23 282 280 273 283 317 294 304 357 307 280 261 249 245 248 252 254 255 258 261 260
323 327 328 342 336 290 220 220 199 184 184 140 95 199 214 216 182 180 164 98 144 122 108 63 285 156 237 269 294 309 336 322 337 55 219 250 191 182 173 222 204 174 167 150 204 193 143 284 294 14 229 285 58 128 49 33 139 110 147 211 178 82 83 100 309 346 39 257 272 307 283 293 343 306 314 344 291 276 265 251 251 254 254 253 254 259 263 262
333 344 354 5 359 327 206 204 180 173 162 105 105 239 213 182 202 191 161 126 132 92 101 181 234 183 191 206 257 265 297 296 308 52 186 236 240 165 145 182 201 190 195 152 139 179 125 292 299 293 212 284 8 95 0 354 53 115 165 169 101 75 305 42 29 330 2 292 285 301 289 279 221 234 282 289 261 262 267 260 256 255 250 249 254 260 263 261
339 359 23 18 24 55 155 163 161 159 127 93 221 245 195 197 224 176 171 143 121 108 134 206 222 63 177 178 212 237 249 234 214 87 183 204 253 177 146 160 187 184 199 158 157 223 109 145 286 294 259 303 6 91 236 292 25 75 103 78 31 141 176 193 145 166 193 278 288 314 322 284 227 211 235 260 258 256 263 264 252 248 248 250 256 262 263 261
326 342 50 25 49 98 127 142 144 128 100 127 205 204 3 231 206 174 175 169 148 147 195 211 173 170 207 199 214 209 179 204 181 160 224 211 230 213 174 164 171 167 190 141 133 79 78 140 252 297 322 315 281 211 197 188 167 121 110 268 312 99 144 256 257 143 145 184 247 299 309 278 258 208 211 251 262 253 247 250 249 250 252 254 258 263 265 263
317 310 22 20 80 129 131 121 89 77 99 134 196 186 348 190 172 178 181 180 205 198 193 185 170 181 192 190 230 204 157 197 189 178 241 213 200 247 195 168 168 158 125 85 104 147 150 163 212 289 312 246 240 239 190 178 169 156 178 198 186 154 118 61 296 284 119 164 194 178 286 278 268 194 212 244 251 246 242 236 242 253 257 261 265 267 265 263
318 75 347 7 132 169 125 82 42 51 110 137 156 158 156 148 149 171 187 187 222 220 180 177 178 175 173 171 203 180 152 190 201 190 230 207 196 215 176 157 164 161 132 125 229 211 153 114 142 270 261 233 255 283 141 181 168 143 180 189 146 134 128 139 234 257 201 194 186 122 253 272 259 175 197 230 234 251 253 238 242 259 265 267 271 270 264 262
338 1 351 2 207 191 139 39 4 14 61 144 136 140 153 170 162 165 196 203 212 210 199 227 202 191 210 190 152 168 180 199 190 186 220 219 211 191 166 154 164 165 130 128 237 171 127 91 81 278 288 305 307 322 6 20 98 154 232 165 141 155 144 154 180 185 198 213 175 117 249 268 268 201 211 239 251 262 259 245 248 263 272 275 276 272 265 264
341 331 349 6 248 200 183 179 191 318 298 309 46 93 187 216 195 180 205 220 203 174 162 216 209 203 216 115 109 175 197 203 206 197 192 201 216 183 166 167 180 179 172 191 157 142 194 199 97 324 325 337 342 348 342 332 179 215 244 175 151 120 104 120 143 100 266 218 168 156 247 263 270 151 200 259 274 270 260 259 263 269 277 284 284 276 268 266
344 321 317 6 277 211 207 200 163 157 189 127 72 215 199 223 216 201 205 215 200 181 167 231 188 156 120 70 71 138 185 200 269 304 61 213 246 204 176 190 201 201 210 199 149 142 190 211 140 137 296 290 294 300 286 271 238 227 215 181 177 139 134 158 128 108 246 226 160 170 239 268 280 297 303 286 279 274 275 279 281 279 284 290 288 277 267 265
358 254 297 355 340 196 190 199 164 146 154 154 148 222 180 176 239 215 203 211 209 195 181 179 148 110 55 75 105 263 260 348 26 77 179 234 257 268 192 201 211 212 185 165 152 127 106 255 204 191 208 231 248 254 231 109 281 263 241 203 198 183 159 132 109 177 206 171 191 224 237 273 287 288 296 297 287 282 287 292 293 292 293 295 289 277 267 266
346 211 245 7 349 70 91 136 173 150 161 170 169 185 184 200 310 237 217 226 216 197 188 168 168 164 173 173 172 242 248 1 42 184 204 221 246 302 246 208 206 205 172 160 174 118 86 289 242 207 228 246 256 271 286 315 264 261 255 221 201 192 165 156 195 212 154 118 260 249 219 247 276 283 293 297 296 295 294 295 297 297 296 295 289 275 265 266
314 233 220 188 239 223 86 17 195 143 139 160 157 149 171 194 228 205 209 216 207 198 190 299 243 208 193 181 160 172 227 299 278 231 214 219 245 0 340 230 203 195 181 170 194 143 121 258 241 195 249 266 265 267 269 264 257 259 255 238 218 195 179 196 221 213 156 193 255 263 240 244 270 284 291 291 293 294 293 294 295 295 293 291 284 272 266 266
273 232 200 189 230 221 182 251 190 144 131 103 87 177 169 188 223 230 186 122 325 238 193 221 260 233 203 188 149 152 204 217 280 259 204 171 205 156 257 252 205 184 179 158 217 175 146 246 242 173 282 284 273 261 257 250 259 268 259 240 223 210 199 210 230 221 197 232 255 267 275 274 275 279 282 284 287 288 289 291 292 291 291 287 278 271 269 270
251 255 207 186 216 159 130 152 143 137 122 31 304 227 178 182 217 239 171 162 210 243 177 209 255 234 195 183 160 187 212 188 190 241 191 159 211 204 200 217 168 146 167 157 196 176 167 256 267 103 314 288 286 306 285 241 247 272 274 257 227 219 217 223 239 233 218 245 257 266 279 280 275 272 271 277 282 285 287 288 288 289 290 286 278 275 274 275
248 261 242 185 154 111 124 147 130 121 321 254 206 224 205 204 210 196 187 205 200 185 187 204 220 172 138 179 195 232 244 205 193 228 198 189 227 219 216 205 156 139 166 193 170 143 173 271 356 60 344 280 292 2 331 301 286 279 280 273 236 204 210 222 230 205 197 231 258 277 283 271 271 276 272 271 276 281 284 286 289 292 292 288 281 280 281 280
258 263 242 201 205 220 175 140 98 111 240 225 195 196 216 241 210 171 178 257 213 197 216 209 184 129 109 203 222 246 260 227 227 255 228 231 250 242 244 221 176 160 164 168 170 164 153 155 21 52 313 272 290 340 326 323 322 290 269 250 192 186 214 238 248 218 198 207 250 264 256 261 280 294 292 285 282 282 284 288 293 294 293 291 287 285 286 286